�N����,����,�~����,�C��,���x,�C��,����,���ϕ���,�ő�u�ԕ���,�ő厞����,���˗�,�I�_���x,�n�����x,�ő啗���N��,DTYPE
"17/05/03","00:10",0.0,11.6,81.6,1019.9,309.4,0.8,1.7,331.3,0.00,8.6,15.0,"00:06:08",1
"17/05/03","00:20",0.0,11.5,82.8,1019.7,308.1,1.2,2.0,302.3,0.00,8.7,14.8,"00:11:46",1
"17/05/03","00:30",0.0,11.4,83.1,1019.4,306.6,1.2,2.1,305.5,0.00,8.7,14.8,"00:22:34",1
"17/05/03","00:40",0.0,11.2,84.0,1019.2,299.5,1.2,2.1,308.2,0.00,8.6,14.9,"00:39:16",1
"17/05/03","00:50",0.0,11.3,84.5,1019.7,332.2,1.2,2.0,336.8,0.00,8.8,14.9,"00:44:34",1
"17/05/03","01:00",0.0,11.3,84.7,1019.7,301.0,1.3,1.9,315.3,0.00,8.9,14.5,"00:57:08",1
"17/05/03","01:10",0.0,11.1,85.3,1019.4,298.7,1.3,2.8,327.9,0.00,8.8,14.7,"01:06:54",1
"17/05/03","01:20",0.0,11.2,85.5,1019.7,306.6,1.3,1.9,322.6,0.00,8.9,14.6,"01:16:06",1
"17/05/03","01:30",0.0,11.1,86.1,1019.4,327.8,1.2,1.9,312.2,0.00,8.9,14.3,"01:25:38",1
"17/05/03","01:40",0.0,11.1,86.6,1019.7,305.2,1.5,1.9,303.9,0.00,9.0,14.4,"01:32:02",1
"17/05/03","01:50",0.0,11.3,86.6,1019.9,313.7,1.6,2.8,326.2,0.00,9.2,14.3,"01:41:40",1
"17/05/03","02:00",0.0,11.1,86.4,1019.7,310.8,1.3,1.9,310.4,0.00,9.0,14.6,"01:58:06",1
"17/05/03","02:10",0.0,11.1,87.4,1019.9,301.3,1.5,2.0,298.4,0.00,9.1,14.4,"02:07:22",1
"17/05/03","02:20",0.0,11.2,87.3,1019.9,304.3,1.3,1.7,302.0,0.00,9.2,14.5,"02:14:14",1
"17/05/03","02:30",0.0,11.2,87.5,1020.1,297.8,1.5,2.0,318.0,0.00,9.2,14.3,"02:29:06",1
"17/05/03","02:40",0.0,11.2,87.6,1019.9,301.0,1.3,1.8,314.3,0.00,9.3,14.3,"02:30:58",1
"17/05/03","02:50",0.0,11.1,87.8,1020.1,307.1,1.3,2.4,318.9,0.00,9.2,14.1,"02:40:48",1
"17/05/03","03:00",0.0,11.0,88.6,1020.1,302.2,1.2,2.0,304.6,0.00,9.2,14.0,"02:58:14",1
"17/05/03","03:10",0.0,11.1,89.0,1020.1,298.8,1.2,1.7,319.3,0.00,9.4,13.9,"03:09:04",1
"17/05/03","03:20",0.0,11.3,88.7,1020.1,304.8,1.2,2.1,298.7,0.00,9.5,14.1,"03:11:18",1
"17/05/03","03:30",0.0,11.3,88.8,1020.4,310.5,1.3,2.2,331.8,0.00,9.6,14.0,"03:26:08",1
"17/05/03","03:40",0.0,11.2,88.4,1020.4,317.3,1.2,1.9,333.9,0.00,9.4,14.2,"03:30:08",1
"17/05/03","03:50",0.0,11.1,89.4,1019.9,312.9,1.3,2.0,325.3,0.00,9.5,14.1,"03:48:24",1
"17/05/03","04:00",0.0,11.2,89.6,1020.1,300.9,1.1,1.7,298.9,0.00,9.6,14.0,"03:54:40",1
"17/05/03","04:10",0.0,11.3,89.7,1020.1,314.7,1.5,2.1,315.4,0.00,9.7,13.9,"04:03:18",1
"17/05/03","04:20",0.0,11.2,89.9,1020.4,331.2,1.5,2.5,324.2,0.00,9.6,14.0,"04:16:38",1
"17/05/03","04:30",0.0,11.2,90.1,1020.1,303.0,1.3,1.8,325.5,0.00,9.7,13.7,"04:20:18",1
"17/05/03","04:40",0.0,11.1,90.1,1019.9,303.1,1.1,2.0,308.7,0.00,9.6,13.9,"04:33:54",1
"17/05/03","04:50",0.0,11.1,90.7,1020.1,300.3,1.3,1.9,303.0,0.00,9.7,13.7,"04:48:46",1
"17/05/03","05:00",0.0,11.2,91.1,1020.6,306.2,1.5,2.2,314.5,0.00,9.8,13.7,"04:59:20",1
"17/05/03","05:10",0.0,11.2,91.0,1019.9,310.7,0.8,1.7,315.1,0.00,9.8,13.8,"05:00:18",1
"17/05/03","05:20",0.0,11.1,90.7,1020.4,296.5,0.7,1.4,313.4,0.00,9.7,13.7,"05:12:50",1
"17/05/03","05:30",0.0,11.0,91.8,1020.1,298.9,1.0,1.7,310.4,0.00,9.8,13.8,"05:29:40",1
"17/05/03","05:40",0.0,11.4,92.2,1020.4,314.8,1.3,1.9,335.4,0.00,10.2,13.6,"05:35:22",1
"17/05/03","05:50",0.0,11.6,91.7,1020.6,322.4,1.3,1.9,315.2,0.00,10.3,13.7,"05:47:50",1
"17/05/03","06:00",0.0,11.5,91.8,1020.4,302.2,1.1,2.0,299.4,0.00,10.3,13.7,"05:57:20",1
"17/05/03","06:10",0.0,12.0,92.2,1020.6,287.4,1.1,1.9,313.0,0.01,10.8,13.9,"06:02:26",1
"17/05/03","06:20",0.0,12.5,91.8,1021.1,317.7,1.3,1.7,320.1,0.02,11.2,13.7,"06:14:48",1
"17/05/03","06:30",0.0,12.8,91.1,1020.8,290.2,0.8,1.2,296.7,0.02,11.4,13.7,"06:28:48",1
"17/05/03","06:40",0.0,13.2,90.3,1021.3,310.2,1.3,1.9,317.8,0.02,11.7,13.8,"06:39:04",1
"17/05/03","06:50",0.0,13.6,89.2,1021.1,314.6,1.1,2.1,312.8,0.04,11.9,13.8,"06:40:24",1
"17/05/03","07:00",0.0,14.2,88.8,1021.5,303.9,1.1,1.9,307.2,0.07,12.4,14.0,"06:57:36",1
"17/05/03","07:10",0.0,15.1,83.9,1022.0,295.8,1.3,1.9,329.0,0.09,12.4,14.1,"07:04:24",1
"17/05/03","07:20",0.0,15.7,82.3,1021.8,325.7,1.3,1.8,324.2,0.10,12.7,14.1,"07:12:56",1
"17/05/03","07:30",0.0,16.7,79.2,1022.0,325.5,0.7,1.4,332.4,0.13,13.1,14.2,"07:20:40",1
"17/05/03","07:40",0.0,17.0,76.2,1022.0,270.7,0.5,1.1,245.6,0.13,12.8,14.0,"07:34:56",1
"17/05/03","07:50",0.0,17.5,73.9,1022.0,288.4,0.5,1.1,235.0,0.14,12.8,14.4,"07:40:08",1
"17/05/03","08:00",0.0,17.8,72.3,1022.3,113.2,0.8,1.9,119.7,0.16,12.8,14.4,"07:55:36",1
"17/05/03","08:10",0.0,18.0,71.0,1021.8,107.8,1.2,3.7,58.9,0.17,12.7,14.5,"08:09:20",1
"17/05/03","08:20",0.0,18.7,68.0,1021.5,64.9,1.2,3.2,114.1,0.25,12.7,14.6,"08:12:24",1
"17/05/03","08:30",0.0,18.5,68.2,1021.8,63.6,1.3,3.9,114.4,0.23,12.6,14.7,"08:28:08",1
"17/05/03","08:40",0.0,18.7,67.6,1021.3,122.4,1.2,2.7,104.9,0.23,12.6,14.9,"08:39:52",1
"17/05/03","08:50",0.0,18.8,67.7,1020.8,145.9,1.6,3.4,152.7,0.25,12.7,15.1,"08:45:20",1
"17/05/03","09:00",0.0,19.4,66.3,1021.5,126.8,1.5,3.1,104.8,0.31,13.0,15.3,"08:54:40",1
"17/05/03","09:10",0.0,19.8,62.2,1021.1,167.3,2.0,3.2,144.2,0.39,12.4,15.3,"09:06:24",1
"17/05/03","09:20",0.0,19.9,64.1,1020.8,150.6,2.2,4.8,131.3,0.39,13.0,15.3,"09:17:04",1
"17/05/03","09:30",0.0,20.1,62.2,1021.1,137.8,2.0,4.7,142.4,0.40,12.7,15.4,"09:26:40",1
"17/05/03","09:40",0.0,19.9,61.6,1020.6,132.6,1.7,3.9,139.7,0.32,12.4,15.4,"09:30:24",1
"17/05/03","09:50",0.0,20.4,60.6,1020.4,122.4,1.7,3.9,116.4,0.35,12.6,15.6,"09:41:28",1
"17/05/03","10:00",0.0,20.6,59.6,1020.6,133.5,1.5,4.2,118.3,0.34,12.5,16.0,"09:53:04",1
"17/05/03","10:10",0.0,20.5,59.7,1020.4,127.6,1.7,3.3,118.1,0.33,12.4,15.9,"10:04:08",1
"17/05/03","10:20",0.0,21.0,59.1,1020.4,136.6,1.5,3.5,137.2,0.30,12.8,16.2,"10:18:00",1
"17/05/03","10:30",0.0,21.2,58.9,1020.1,114.3,1.0,2.8,123.7,0.30,12.9,16.3,"10:20:32",1
"17/05/03","10:40",0.0,21.1,57.9,1020.4,110.7,1.5,4.0,112.8,0.27,12.5,16.3,"10:38:08",1
"17/05/03","10:50",0.0,21.1,57.6,1020.4,131.0,1.8,4.0,125.2,0.28,12.5,16.4,"10:42:32",1
"17/05/03","11:00",0.0,21.9,58.1,1020.1,157.3,1.0,2.6,144.0,0.34,13.3,16.7,"10:52:00",1
"17/05/03","11:10",0.0,22.6,56.5,1019.9,137.2,1.3,4.1,129.1,0.53,13.6,16.9,"11:06:48",1
"17/05/03","11:20",0.0,22.9,55.7,1019.7,113.7,1.6,4.8,118.2,0.62,13.6,17.0,"11:17:28",1
"17/05/03","11:30",0.0,22.9,54.2,1019.7,191.0,2.1,5.6,196.0,0.48,13.2,17.4,"11:28:24",1
"17/05/03","11:40",0.0,23.3,53.0,1019.2,154.0,2.0,4.3,152.6,0.66,13.2,17.5,"11:33:52",1
"17/05/03","11:50",0.0,22.5,53.3,1019.4,104.3,1.1,2.6,122.9,0.37,12.6,17.5,"11:42:32",1
"17/05/03","12:00",0.0,23.2,52.3,1018.7,142.7,2.0,3.9,99.0,0.51,12.9,17.9,"11:55:36",1
"17/05/03","12:10",0.0,23.7,48.6,1018.5,168.3,1.6,3.6,161.0,0.54,12.3,18.1,"12:00:08",1
"17/05/03","12:20",0.0,24.4,48.3,1018.0,149.8,2.0,4.4,148.4,0.63,12.8,18.4,"12:18:08",1
"17/05/03","12:30",0.0,23.5,47.7,1018.0,148.1,1.7,5.0,151.9,0.55,11.8,18.5,"12:20:16",1
"17/05/03","12:40",0.0,23.9,45.4,1017.8,130.2,1.7,4.0,109.1,0.58,11.4,18.7,"12:35:52",1
"17/05/03","12:50",0.0,24.1,44.0,1017.8,96.0,1.7,4.4,112.9,0.46,11.1,18.7,"12:49:28",1
"17/05/03","13:00",0.0,23.8,45.4,1017.3,146.0,2.2,4.9,114.6,0.37,11.3,18.9,"12:58:32",1
"17/05/03","13:10",0.0,23.8,46.3,1017.5,187.5,1.5,4.2,128.0,0.34,11.6,18.9,"13:00:48",1
"17/05/03","13:20",0.0,23.6,44.4,1017.8,184.2,2.0,3.7,187.8,0.35,10.8,19.0,"13:10:32",1
"17/05/03","13:30",0.0,23.6,45.8,1017.3,148.3,1.8,3.5,154.5,0.25,11.3,19.0,"13:25:28",1
"17/05/03","13:40",0.0,24.0,42.6,1017.5,136.7,1.3,3.7,100.9,0.35,10.6,18.9,"13:30:24",1
"17/05/03","13:50",0.0,23.4,45.7,1017.3,168.0,2.1,5.0,231.1,0.20,11.1,19.1,"13:40:24",1
"17/05/03","14:00",0.0,23.2,44.2,1017.5,165.6,2.6,5.6,167.5,0.19,10.4,18.8,"13:55:52",1
"17/05/03","14:10",0.0,23.6,45.3,1017.5,184.2,2.3,4.4,153.3,0.28,11.1,19.0,"14:08:00",1
"17/05/03","14:20",0.0,23.9,45.9,1017.3,188.2,2.0,4.4,209.8,0.30,11.6,18.7,"14:13:52",1
"17/05/03","14:30",0.0,24.2,43.3,1017.1,194.2,1.8,3.4,227.6,0.32,11.0,19.0,"14:20:32",1
"17/05/03","14:40",0.0,23.9,44.5,1017.1,159.1,1.6,2.9,193.9,0.26,11.1,18.8,"14:31:44",1
"17/05/03","14:50",0.0,23.4,43.9,1017.1,156.8,1.7,4.0,123.9,0.16,10.5,18.9,"14:42:56",1
"17/05/03","15:00",0.0,23.7,43.4,1016.6,148.9,1.3,3.5,229.7,0.19,10.6,19.0,"14:58:40",1
"17/05/03","15:10",0.0,23.5,41.7,1016.6,171.1,1.6,3.6,156.4,0.16,9.8,18.9,"15:06:00",1
"17/05/03","15:20",0.0,23.2,44.8,1016.6,172.8,1.5,3.3,127.9,0.09,10.6,18.8,"15:16:40",1
"17/05/03","15:30",0.0,23.2,45.4,1016.6,121.1,1.7,3.6,118.3,0.12,10.8,18.9,"15:25:04",1
"17/05/03","15:40",0.0,23.3,46.3,1016.6,100.1,1.2,3.2,117.1,0.09,11.2,18.8,"15:34:00",1
"17/05/03","15:50",0.0,22.9,46.4,1017.1,116.1,1.8,4.1,123.4,0.05,10.8,18.7,"15:44:40",1
"17/05/03","16:00",0.0,22.5,49.9,1017.1,113.8,2.1,4.0,123.1,0.05,11.6,18.7,"15:58:24",1
"17/05/03","16:10",0.0,22.3,49.9,1017.3,111.1,2.1,4.9,110.2,0.04,11.4,18.7,"16:02:08",1
"17/05/03","16:20",0.0,22.0,50.7,1017.3,154.3,2.5,4.9,184.0,0.07,11.4,18.4,"16:11:44",1
"17/05/03","16:30",0.0,21.8,52.7,1017.1,124.4,1.8,3.9,145.3,0.08,11.8,18.2,"16:24:24",1
"17/05/03","16:40",0.0,21.7,51.5,1017.3,94.2,2.0,4.3,127.9,0.08,11.3,18.3,"16:31:20",1
"17/05/03","16:50",0.0,21.5,52.2,1017.5,89.3,1.6,2.9,109.9,0.10,11.3,18.3,"16:47:12",1
"17/05/03","17:00",0.0,21.9,51.8,1017.8,97.9,1.5,3.2,101.6,0.14,11.6,18.4,"16:59:44",1
"17/05/03","17:10",0.0,21.7,51.8,1017.5,79.8,1.6,3.4,70.3,0.11,11.4,18.2,"17:02:24",1
"17/05/03","17:20",0.0,21.7,50.6,1017.8,102.4,2.3,4.4,111.6,0.11,11.1,18.2,"17:13:36",1
"17/05/03","17:30",0.0,21.5,51.6,1018.0,81.5,1.5,3.5,96.6,0.09,11.2,18.2,"17:25:04",1
"17/05/03","17:40",0.0,21.2,51.7,1018.2,77.7,1.6,3.6,51.3,0.06,10.9,17.8,"17:34:08",1
"17/05/03","17:50",0.0,20.7,53.3,1018.0,95.3,1.7,3.4,82.1,0.04,10.9,18.0,"17:41:44",1
"17/05/03","18:00",0.0,20.6,53.8,1018.0,58.5,1.3,3.2,119.6,0.03,11.0,17.8,"17:53:12",1
"17/05/03","18:10",0.0,20.4,54.0,1018.2,56.2,1.2,3.2,115.5,0.02,10.8,18.1,"18:06:16",1
"17/05/03","18:20",0.0,20.2,54.8,1018.5,82.1,1.2,3.1,102.4,0.01,10.9,17.7,"18:17:12",1
"17/05/03","18:30",0.0,20.1,55.9,1019.0,75.4,0.7,1.9,78.1,0.00,11.1,17.7,"18:20:16",1
"17/05/03","18:40",0.0,19.9,56.0,1018.5,41.9,0.7,1.4,97.0,0.00,10.9,17.7,"18:30:48",1
"17/05/03","18:50",0.0,19.6,57.0,1018.5,12.7,0.8,1.9,16.4,0.00,10.9,17.7,"18:48:56",1
"17/05/03","19:00",0.0,19.4,57.9,1018.7,12.4,1.0,2.0,350.8,0.00,10.9,17.5,"18:53:36",1
"17/05/03","19:10",0.0,19.1,58.4,1019.0,16.0,1.0,2.4,40.6,0.00,10.8,17.4,"19:04:08",1
"17/05/03","19:20",0.0,18.7,59.6,1019.4,353.8,0.7,2.8,336.6,0.00,10.7,17.3,"19:15:20",1
"17/05/03","19:30",0.0,18.4,61.0,1019.4,357.7,0.8,2.6,37.9,0.00,10.8,17.3,"19:23:20",1
"17/05/03","19:40",0.0,18.2,61.9,1019.4,359.3,0.8,2.2,26.6,0.00,10.8,17.2,"19:36:40",1
"17/05/03","19:50",0.0,18.1,62.4,1019.4,24.4,0.6,1.6,8.7,0.00,10.8,17.0,"19:42:16",1
"17/05/03","20:00",0.0,18.2,62.5,1019.7,72.2,1.0,2.7,109.3,0.00,11.0,16.9,"19:59:28",1
"17/05/03","20:10",0.0,18.2,62.5,1019.7,53.8,0.8,2.2,81.3,0.00,11.0,17.0,"20:02:08",1
"17/05/03","20:20",0.0,18.0,62.5,1019.7,18.4,1.0,2.9,67.4,0.00,10.8,16.8,"20:19:44",1
"17/05/03","20:30",0.0,18.0,62.8,1019.9,345.9,1.1,2.4,42.3,0.00,10.9,16.8,"20:26:40",1
"17/05/03","20:40",0.0,17.7,64.1,1020.1,313.2,1.2,2.2,322.2,0.00,10.9,17.0,"20:32:40",1
"17/05/03","20:50",0.0,17.0,66.5,1020.1,307.8,1.1,1.8,327.6,0.00,10.8,16.7,"20:45:52",1
"17/05/03","21:00",0.0,16.4,69.5,1020.4,331.3,1.0,2.1,335.6,0.00,10.9,16.6,"20:54:32",1
"17/05/03","21:10",0.0,15.9,71.7,1020.1,313.7,1.3,1.9,310.4,0.00,10.8,16.4,"21:09:20",1
"17/05/03","21:20",0.0,15.4,73.4,1020.1,282.9,1.0,1.6,301.3,0.00,10.7,16.4,"21:10:08",1
"17/05/03","21:30",0.0,15.2,74.8,1020.1,300.3,1.0,1.8,316.1,0.00,10.8,16.4,"21:24:16",1
"17/05/03","21:40",0.0,15.1,75.5,1020.4,279.2,1.1,1.4,284.2,0.00,10.8,16.2,"21:36:48",1
"17/05/03","21:50",0.0,15.1,76.0,1020.1,318.2,1.2,1.8,298.4,0.00,10.9,16.1,"21:42:00",1
"17/05/03","22:00",0.0,14.7,77.5,1020.1,330.7,1.5,2.0,307.6,0.00,10.9,16.2,"21:53:12",1
"17/05/03","22:10",0.0,14.2,79.0,1019.9,292.8,1.1,1.8,325.9,0.00,10.7,16.0,"22:08:40",1
"17/05/03","22:20",0.0,14.1,80.0,1020.1,315.5,1.5,1.9,336.0,0.00,10.7,16.0,"22:19:36",1
"17/05/03","22:30",0.0,14.0,80.2,1019.9,315.1,1.3,2.5,325.0,0.00,10.7,15.8,"22:29:12",1
"17/05/03","22:40",0.0,13.9,79.9,1019.7,287.2,1.0,1.7,319.0,0.00,10.5,15.9,"22:31:44",1
"17/05/03","22:50",0.0,13.6,80.8,1019.4,318.3,0.8,1.6,315.0,0.00,10.4,15.7,"22:41:44",1
"17/05/03","23:00",0.0,13.2,82.4,1019.7,317.4,1.1,1.6,314.6,0.00,10.3,15.6,"22:59:42",1
"17/05/03","23:10",0.0,12.8,83.4,1019.7,320.1,1.5,2.0,331.8,0.00,10.1,15.3,"23:03:22",1
"17/05/03","23:20",0.0,12.7,84.5,1019.4,314.9,1.5,2.1,321.6,0.00,10.2,15.4,"23:15:52",1
"17/05/03","23:30",0.0,12.9,84.5,1019.4,324.4,1.3,2.2,325.8,0.00,10.4,15.1,"23:22:02",1
"17/05/03","23:40",0.0,12.7,84.0,1019.4,302.5,1.1,1.7,325.3,0.00,10.1,15.3,"23:31:20",1
"17/05/03","23:50",0.0,12.6,84.4,1019.4,243.7,0.1,0.8,106.1,0.00,10.1,15.3,"23:42:48",1
"17/05/03","24:00",0.0,12.4,84.8,1019.7,319.6,1.7,2.7,335.1,0.00,10.0,15.2,"23:58:04",1
